This is the latest recevied weather packets stored in our database for station/object JQ3CCU-10. If no packets are shown the sender has not sent any weather packets the latest 10 day(s).
| Time | Temp. | Humidity | Pressure | Rain* | Wind** | Luminosity | Snow |
|---|---|---|---|---|---|---|---|
| 1777985655 | 21.67° C | 69% | - | - | 0 m/s | - | - |
| 1777983855 | 22.22° C | 63% | - | - | 0 m/s | - | - |
| 1777982055 | 22.22° C | 63% | - | - | 0 m/s | - | - |
| 1777980255 | 22.78° C | 62% | - | - | 0 m/s | - | - |
| 1777978455 | 22.78° C | 62% | - | - | 0 m/s | - | - |
| 1777976655 | 24.44° C | 56% | - | - | 0 m/s | - | - |
| 1777974855 | 24.44° C | 56% | - | - | 0 m/s | - | - |
| 1777973055 | 25.56° C | 53% | - | - | 0 m/s | - | - |
| 1777971255 | 25.56° C | 53% | - | - | 0 m/s | - | - |
| 1777969455 | 25° C | 52% | - | - | 0 m/s | - | - |
| 1777967655 | 25° C | 52% | - | - | 0 m/s | - | - |
| 1777965855 | 25° C | 52% | - | - | 0 m/s | - | - |
| 1777964055 | 25° C | 52% | - | - | 0 m/s | - | - |
| 1777962255 | 24.44° C | 53% | - | - | 0 m/s | - | - |
| 1777960455 | 24.44° C | 53% | - | - | 0 m/s | - | - |
| 1777958655 | 24.44° C | 53% | - | - | 0 m/s | - | - |
| 1777956855 | 24.44° C | 53% | - | - | 0 m/s | - | - |
| 1777955055 | 24.44° C | 52% | - | - | 0 m/s | - | - |
| 1777953255 | 24.44° C | 52% | - | - | 0 m/s | - | - |
| 1777951455 | 24.44° C | 51% | - | - | 0 m/s | - | - |
| 1777949655 | 24.44° C | 51% | - | - | 0 m/s | - | - |
| 1777947855 | 25° C | 48% | - | - | 0 m/s | - | - |
| 1777946055 | 25° C | 48% | - | - | 0 m/s | - | - |
| 1777944255 | 29.44° C | 39% | - | - | 0 m/s | - | - |
| 1777942455 | 29.44° C | 39% | - | - | 0 m/s | - | - |
* Rain since midnight (hover to see other rain measurements)
** Current wind speed in m/s (hover to see current wind gust speed)